Simultaneous Nadir Overpasses (SNOs) Predictions

Prediction of SNOs between METOP-A and TERRA Satellite Orbit:

Table of predicted SNOs for the next 14.0 days since TLE Epoch: 7/13/2013
Index Date (METOP-A) Time (METOP-A) Lat,Lon (METOP-A) SZA (METOP-A ) Date (TERRA) Time (TERRA) Lat,Lon (TERRA) SZA (TERRA ) Distance(km) Time Diff (sec)
1 07/13/2013 18:49:45 81.30, -55.47 62.31 07/13/2013 18:50:03 81.30, -55.36 62.33 1.83 18
2 07/13/2013 19:40:25 -81.30, 112.30 117.64 07/13/2013 19:39:30 -81.30, 112.21 117.68 1.75 55
3 07/16/2013 14:24:08 81.30, 11.08 62.76 07/16/2013 14:24:14 81.30, 11.16 62.78 1.54 6
4 07/16/2013 15:14:48 -81.30, 178.88 117.18 07/16/2013 15:13:41 -81.30, 178.76 117.23 2.08 67
5 07/19/2013 09:07:53 -81.29, -90.25 116.82 07/19/2013 09:09:00 -81.30, -90.09 116.76 2.90 67
6 07/19/2013 09:58:32 81.30, 77.60 63.26 07/19/2013 09:58:26 81.30, 77.57 63.25 0.66 6
7 07/22/2013 04:42:17 -81.29, -23.72 116.27 07/22/2013 04:43:12 -81.29, -23.78 116.25 0.98 55
8 07/22/2013 05:32:57 81.30, 143.72 63.76 07/22/2013 05:32:38 81.29, 143.85 63.76 2.27 19
9 07/25/2013 00:16:40 -81.30, 42.79 115.68 07/25/2013 00:17:22 -81.30, 42.79 115.66 0.33 42




NCC Satellite Simultaneous Nadir Overpasses (SNOs) Prediction Service
